This demonstration page uses our WeatherBlox Daily Observations layout. Learn more.

Left ArrowRight Arrow

34.74481, -87.66753

Hourly Observations for March 6, 2018

Temp ( °F °C ) Dew Point ( °F °C ) Humidity (%) Winds ( mph kmh ) Pressure ( in mb ) Visibility ( mi km ) Precip ( " mm )
12:53 am 00:53 Cloudy 61 16.1 54 12.2 78 78 NW 12 19 29.85 1011 10 16 0.00 0.00
1:20 am 01:20 Cloudy 60 15.6 54 12.2 80 80 NW 9 15 29.85 1011 10 16 0.00 0.00
1:45 am 01:45 Cloudy 59 15 53 11.7 81 81 NW 12 19 29.83 1010 10 16 0.00 0.00
1:53 am 01:53 Cloudy 59 15 53 11.7 81 81 NW 15 24 29.86 1011 10 16 0.00 0.00
2:40 am 02:40 Cloudy 57 13.9 47 8.3 69 69 NNW 13 20 29.88 1012 10 16 0.00 0.00
2:53 am 02:53 Cloudy 57 13.9 45 7.2 64 64 NNW 14 22 29.86 1011 10 16 0.00 0.00
3:50 am 03:50 Cloudy 55 13 45 7 67 67 NNW 14 22 29.88 1012 10 16 0.00 0.00
3:53 am 03:53 Cloudy 55 12.8 45 7.2 69 69 NNW 13 20 29.88 1012 10 16 0.00 0.00
4:15 am 04:15 Cloudy 55 12.8 45 7.2 69 69 N 12 19 29.91 1013 10 16 0.00 0.00
4:53 am 04:53 Cloudy 54 12.2 43 6.1 67 67 N 7 11 29.91 1013 10 16 0.00 0.00
5:53 am 05:53 Cloudy 53 11.7 40 4.4 61 61 N 5 7 29.93 1013 10 16 0.00 0.00
6:53 am 06:53 Mostly Sunny 51 10.6 41 5 69 69 N 3 6 29.93 1014 10 16 0.00 0.00
7:53 am 07:53 Sunny 54 12.2 40 4.4 59 59 NE 8 13 29.94 1014 10 16 0.00 0.00
8:53 am 08:53 Sunny 55 12.8 38 3.3 53 53 E 5 7 29.93 1014 10 16 0.00 0.00
9:53 am 09:53 Sunny 59 15 36 2.2 42 42 WNW 8 13 29.93 1014 10 16 0.00 0.00
10:53 am 10:53 Sunny 62 16.7 31 -0.6 31 31 NW 8 13 29.92 1013 10 16 0.00 0.00
11:53 am 11:53 Sunny 63 17.2 28 -2.2 27 27 W 16 26 29.91 1013 10 16 0.00 0.00
12:53 pm 12:53 Sunny 64 17.8 26 -3.3 24 24 W 13 20 29.88 1012 10 16 0.00 0.00
1:53 pm 13:53 Sunny 65 18.3 23 -5 20 20 W 14 22 29.84 1011 10 16 0.00 0.00
2:53 pm 14:53 Sunny 65 18.3 20 -6.7 18 18 W 17 28 29.81 1010 10 16 0.00 0.00
3:53 pm 15:53 Sunny 65 18.3 18 -7.8 16 16 W 16 26 29.80 1009 10 16 0.00 0.00
4:53 pm 16:53 Sunny 63 17.2 15 -9.4 15 15 W 23 37 29.80 1009 10 16 0.00 0.00
5:53 pm 17:53 Clear 59 15 19 -7.2 21 21 W 24 39 29.81 1010 10 16 0.00 0.00
6:53 pm 18:53 Clear 57 13.9 19 -7.2 23 23 W 13 20 29.83 1010 10 16 0.00 0.00
7:53 pm 19:53 Clear 54 12.2 19 -7.2 25 25 W 14 22 29.84 1011 10 16 0.00 0.00
8:53 pm 20:53 Clear 50 10 23 -5 35 35 WSW 8 13 29.84 1010 10 16 0.00 0.00
9:53 pm 21:53 Clear 52 11.1 20 -6.7 28 28 WNW 26 43 29.86 1011 10 16 0.00 0.00
10:06 pm 22:06 Clear 51 10.6 22 -5.6 32 32 NNW 16 26 29.88 1012 10 16 0.00 0.00
10:53 pm 22:53 Clear 49 9.4 22 -5.6 35 35 NNW 14 22 29.91 1013 10 16 0.00 0.00
11:53 pm 23:53 Mostly Clear 47 8.3 21 -6.1 36 36 NW 15 24 29.93 1014 10 16 0.00 0.00

Powered by AerisWeather